This is the latest recevied weather packets stored in our database for station/object KC5AV. If no packets are shown the sender has not sent any weather packets the latest 1 day(s).
| Time | Temp. | Humidity | Pressure | Rain* | Wind** | Luminosity | Snow |
|---|---|---|---|---|---|---|---|
| 1777980039 | 20° C | 87% | 1007.9 hPa | 0 mm | 0 m/s | 0 W/m² | - |
| 1777979738 | 20° C | 88% | 1007.9 hPa | 0 mm | 0 m/s | 0 W/m² | - |
| 1777979434 | 20° C | 87% | 1007.9 hPa | 0 mm | 0.45 m/s, 69° | 0 W/m² | - |
| 1777979131 | 20° C | 87% | 1007.9 hPa | 0 mm | 0.89 m/s, 125° | 0 W/m² | - |
| 1777978828 | 20° C | 87% | 1007.9 hPa | 0 mm | 0.45 m/s, 107° | 0 W/m² | - |
| 1777978524 | 20° C | 87% | 1008 hPa | 0 mm | 0.89 m/s, 111° | 0 W/m² | - |
| 1777978220 | 20° C | 87% | 1007.7 hPa | 0 mm | 0 m/s | 0 W/m² | - |
| 1777977918 | 20° C | 87% | 1007.8 hPa | 0 mm | 0.45 m/s, 160° | 0 W/m² | - |
| 1777977615 | 20° C | 87% | 1007.8 hPa | 0 mm | 0 m/s | 0 W/m² | - |
| 1777977312 | 20° C | 87% | 1007.8 hPa | 0 mm | 1.79 m/s, 142° | 0 W/m² | - |
| 1777977009 | 20° C | 87% | 1007.9 hPa | 0 mm | 0.89 m/s, 118° | 0 W/m² | - |
| 1777976706 | 20° C | 87% | 1007.9 hPa | 0 mm | 0.89 m/s, 57° | 0 W/m² | - |
| 1777976403 | 20° C | 87% | 1007.6 hPa | 0 mm | 0.45 m/s, 117° | 0 W/m² | - |
| 1777976101 | 20° C | 87% | 1007.9 hPa | 0 mm | 1.79 m/s, 132° | 0 W/m² | - |
| 1777975798 | 20° C | 86% | 1007.6 hPa | 0 mm | 0.89 m/s, 250° | 0 W/m² | - |
| 1777975495 | 20° C | 86% | 1007.8 hPa | 0 mm | 1.34 m/s, 133° | 0 W/m² | - |
| 1777975191 | 20° C | 86% | 1007.7 hPa | 0 mm | 0.89 m/s, 53° | 0 W/m² | - |
| 1777974888 | 20° C | 86% | 1007.7 hPa | 0 mm | 1.79 m/s, 92° | 0 W/m² | - |
| 1777974584 | 20° C | 86% | 1008 hPa | 0 mm | 1.34 m/s, 154° | 0 W/m² | - |
| 1777974281 | 20° C | 86% | 1007.8 hPa | 0 mm | 0.45 m/s, 170° | 0 W/m² | - |
| 1777973977 | 20° C | 86% | 1007.9 hPa | 0 mm | 0 m/s | 0 W/m² | - |
| 1777973674 | 20° C | 86% | 1007.8 hPa | 0 mm | 1.34 m/s, 141° | 0 W/m² | - |
| 1777973371 | 20° C | 86% | 1007.9 hPa | 0 mm | 0.45 m/s, 164° | 0 W/m² | - |
| 1777973069 | 19.44° C | 86% | 1008 hPa | 0 mm | 0.89 m/s, 153° | 0 W/m² | - |
| 1777972766 | 19.44° C | 86% | 1008.1 hPa | 0 mm | 0.89 m/s, 87° | 0 W/m² | - |
* Rain latest hour (hover to see other rain measurements)
** Current wind speed in m/s (hover to see current wind gust speed)